tititudorancea.com
Station Historical Data
Daily Summary for October 31, 2018 Units:  Metric    English   Both
« Previous Day
Next Day »
Daily Weekly Monthly Yearly Custom
  High: Low: Average:
Temperature: -17.8 °C 9.9 °C 13.8 °C
Dew Point: -17.8 °C 8.6 °C 11 °C
Humidity: Humidity % 53 % 84 %
Wind Speed: 0 km/h 0 km/h 9.2 km/h
Wind Gust: 0 km/h - -
Wind:- - SSW
Pressure: 0 hPa 1015.5 hPa -
Precipitation: 0 mm    
Historical Graphs
 
 
Ararat weather Find more about Weather in Ararat, AU


 



 


Tabular Data for October 31, 2018
Time Temperature Dew Point Pressure Wind Wind Speed Wind Gust Humidity Rainfall Rate (Hourly)
-17.8 °C -17.8 °C 0 hPa Calm     Humidity % 0 mm
00:04 10.5 °C 8.9 °C 1017.2 hPa South 7.4 km/h 3.2 km/h 90 % 0 mm
00:09 10.4 °C 8.9 °C 1017.2 hPa North 5.6 km/h 3.5 km/h 90 % 0 mm
00:14 10.3 °C 8.8 °C 1017.2 hPa South 5.6 km/h 4.3 km/h 90 % 0 mm
00:19 10.3 °C 8.9 °C 1017.2 hPa North 7.4 km/h 6.4 km/h 91 % 0 mm
00:24 10.3 °C 8.9 °C 1017.5 hPa South 7.4 km/h 3.1 km/h 91 % 0 mm
00:29 10.3 °C 8.9 °C 1017.2 hPa South 8 km/h 6 km/h 91 % 0 mm
00:34 10.4 °C 9 °C 1017.2 hPa South 13 km/h 3.1 km/h 91 % 0 mm
00:39 10.3 °C 8.9 °C 1017.2 hPa South 1.9 km/h 3.2 km/h 91 % 0 mm
00:44 10.3 °C 8.9 °C 1017.2 hPa South 5.6 km/h 1.1 km/h 91 % 0 mm
00:49 10.2 °C 8.8 °C 1017.2 hPa North 3.7 km/h 0.2 km/h 91 % 0 mm
00:54 10.2 °C 8.8 °C 1016.8 hPa North 5.6 km/h 1.6 km/h 91 % 0 mm
00:59 10.1 °C 8.7 °C 1016.8 hPa South 5.6 km/h 2.6 km/h 91 % 0 mm
01:04 10 °C 8.6 °C 1016.8 hPa South 6.4 km/h 4.7 km/h 91 % 0 mm
01:09 9.9 °C 8.6 °C 1016.8 hPa South 1.6 km/h 3.1 km/h 91 % 0 mm
01:14 9.9 °C 8.6 °C 1016.8 hPa South 8 km/h 7.7 km/h 91 % 0 mm
01:19 10 °C 8.8 °C 1016.8 hPa South 9.7 km/h 5.1 km/h 92 % 0 mm
01:24 10.1 °C 8.8 °C 1016.8 hPa South 13 km/h 5.8 km/h 92 % 0 mm
01:29 10.1 °C 8.9 °C 1016.8 hPa South 9.3 km/h 5.8 km/h 92 % 0 mm
01:34 10.1 °C 8.9 °C 1016.8 hPa South 11.1 km/h 6 km/h 92 % 0 mm
01:39 10.1 °C 8.9 °C 1016.8 hPa South 9.7 km/h 7.4 km/h 92 % 0 mm
01:44 10.1 °C 8.9 °C 1016.8 hPa South 11.1 km/h 8 km/h 92 % 0 mm
01:49 10.2 °C 8.9 °C 1016.8 hPa South 11.1 km/h 9 km/h 92 % 0 mm
01:54 10.3 °C 9.1 °C 1016.8 hPa South 17.7 km/h 11.7 km/h 92 % 0 mm
01:59 10.3 °C 9.1 °C 1016.8 hPa South 16.7 km/h 11.1 km/h 92 % 0 mm
02:04 10.3 °C 9.1 °C 1016.8 hPa South 11.1 km/h 8 km/h 92 % 0 mm
02:09 10.4 °C 9.2 °C 1016.5 hPa North 13 km/h 8 km/h 92 % 0 mm
02:14 10.4 °C 9.2 °C 1016.5 hPa South 14.8 km/h 11.4 km/h 92 % 0 mm
02:19 10.4 °C 9.2 °C 1016.5 hPa South 18.5 km/h 11.1 km/h 92 % 0 mm
02:24 10.4 °C 9.3 °C 1016.5 hPa North 18.5 km/h 7.4 km/h 93 % 0 mm
02:29 10.4 °C 9.3 °C 1016.5 hPa North 13 km/h 9.8 km/h 93 % 0 mm
02:34 10.5 °C 9.4 °C 1016.5 hPa South 11.1 km/h 6.9 km/h 93 % 0 mm
02:39 10.6 °C 9.4 °C 1016.5 hPa North 13 km/h 10.5 km/h 93 % 0 mm
02:44 10.6 °C 9.4 °C 1016.5 hPa SSE 12.9 km/h 10.8 km/h 93 % 0 mm
02:49 10.5 °C 9.4 °C 1016.5 hPa North 18.5 km/h 9.3 km/h 93 % 0 mm
02:54 10.4 °C 9.3 °C 1016.5 hPa South 14.8 km/h 11.1 km/h 93 % 0 mm
02:59 10.4 °C 9.3 °C 1016.1 hPa SSE 14.8 km/h 9.2 km/h 93 % 0 mm
03:04 10.4 °C 9.5 °C 1016.1 hPa SSE 18.5 km/h 10 km/h 94 % 0 mm
03:09 10.4 °C 9.5 °C 1016.5 hPa North 11.1 km/h 8.7 km/h 94 % 0 mm
03:14 10.5 °C 9.6 °C 1016.5 hPa North 14.8 km/h 9.2 km/h 94 % 0 mm
03:19 10.5 °C 9.6 °C 1016.5 hPa North 18.5 km/h 10.1 km/h 94 % 0 mm
03:24 10.5 °C 9.6 °C 1016.5 hPa North 18.5 km/h 10 km/h 94 % 0 mm
03:29 10.6 °C 9.6 °C 1016.1 hPa North 16.7 km/h 11.3 km/h 94 % 0 mm
03:34 10.6 °C 9.6 °C 1016.1 hPa North 13 km/h 10.5 km/h 94 % 0 mm
03:39 10.6 °C 9.7 °C 1016.1 hPa SSE 9.3 km/h 7.6 km/h 94 % 0 mm
03:44 10.6 °C 9.6 °C 1016.5 hPa North 16.1 km/h 8 km/h 94 % 0 mm
03:49 10.6 °C 9.6 °C 1016.5 hPa South 18.5 km/h 10.1 km/h 94 % 0 mm
03:54 10.6 °C 9.6 °C 1016.5 hPa North 14.8 km/h 11.1 km/h 94 % 0 mm
03:59 10.6 °C 9.7 °C 1016.5 hPa South 18.5 km/h 11.3 km/h 94 % 0 mm
04:04 10.6 °C 9.6 °C 1016.8 hPa North 16.7 km/h 9 km/h 94 % 0 mm
04:09 10.5 °C 9.6 °C 1016.8 hPa South 16.7 km/h 8.9 km/h 94 % 0 mm
04:14 10.5 °C 9.6 °C 1016.5 hPa North 13 km/h 10.8 km/h 94 % 0 mm
04:19 10.5 °C 9.7 °C 1016.5 hPa South 18.5 km/h 11.3 km/h 95 % 0 mm
04:24 10.5 °C 9.7 °C 1016.5 hPa South 13 km/h 12.2 km/h 95 % 0 mm
04:29 10.5 °C 9.7 °C 1016.8 hPa North 14.8 km/h 9 km/h 95 % 0 mm
04:34 10.6 °C 9.8 °C 1016.5 hPa South 19.3 km/h 11.3 km/h 95 % 0 mm
04:39 10.6 °C 9.8 °C 1016.5 hPa North 16.7 km/h 7.7 km/h 95 % 0 mm
04:44 10.6 °C 9.8 °C 1016.5 hPa South 13 km/h 10.6 km/h 95 % 0 mm
04:49 10.6 °C 9.8 °C 1016.5 hPa South 12.9 km/h 10.1 km/h 95 % 0 mm
04:54 10.6 °C 9.8 °C 1016.5 hPa North 9.3 km/h 8.4 km/h 95 % 0 mm
04:59 10.6 °C 9.8 °C 1016.5 hPa North 11.1 km/h 6.3 km/h 95 % 0 mm
05:04 10.6 °C 9.8 °C 1016.5 hPa North 13 km/h 9.7 km/h 95 % 0 mm
05:09 10.6 °C 9.8 °C 1016.5 hPa SSE 13 km/h 8.7 km/h 95 % 0 mm
05:14 10.6 °C 9.8 °C 1016.5 hPa North 13 km/h 7.4 km/h 95 % 0 mm
05:19 10.6 °C 9.8 °C 1016.1 hPa North 11.3 km/h 7.1 km/h 95 % 0 mm
05:24 10.7 °C 9.9 °C 1016.5 hPa SSE 11.1 km/h 7.6 km/h 95 % 0 mm
05:29 10.7 °C 9.9 °C 1016.5 hPa North 13 km/h 8.4 km/h 95 % 0 mm
05:34 10.7 °C 9.9 °C 1016.5 hPa SSE 16.7 km/h 10 km/h 95 % 0 mm
05:39 10.7 °C 9.9 °C 1016.5 hPa North 13 km/h 9.2 km/h 95 % 0 mm
05:44 10.7 °C 9.9 °C 1016.5 hPa North 9.3 km/h 6.4 km/h 95 % 0 mm
05:49 10.7 °C 9.9 °C 1016.5 hPa SSE 14.8 km/h 9.2 km/h 95 % 0 mm
05:54 10.7 °C 9.9 °C 1016.5 hPa North 9.3 km/h 7.7 km/h 95 % 0 mm
05:59 10.7 °C 9.9 °C 1016.8 hPa SSE 9.3 km/h 3.9 km/h 95 % 0 mm
06:04 10.7 °C 9.9 °C 1016.5 hPa SSE 11.3 km/h 7.9 km/h 95 % 0 mm
06:09 10.8 °C 10 °C 1016.5 hPa SSE 9.7 km/h 6.6 km/h 95 % 0 mm
06:14 10.8 °C 10.2 °C 1016.5 hPa SSE 9.3 km/h 6.6 km/h 96 % 0 mm
06:19 10.8 °C 10 °C 1016.8 hPa North 13 km/h 8.5 km/h 95 % 0 mm
06:24 10.8 °C 10 °C 1017.2 hPa South 16.7 km/h 9 km/h 95 % 0 mm
06:29 10.8 °C 10.2 °C 1017.2 hPa South 17.7 km/h 10.9 km/h 96 % 0 mm
06:34 10.8 °C 10.2 °C 1017.2 hPa South 11.1 km/h 8 km/h 96 % 0 mm
06:39 10.8 °C 10.2 °C 1017.2 hPa South 14.8 km/h 11.1 km/h 96 % 0 mm
06:44 10.9 °C 10.3 °C 1017.2 hPa South 7.4 km/h 5.1 km/h 96 % 0 mm
06:49 10.9 °C 10.3 °C 1017.2 hPa North 13 km/h 9.5 km/h 96 % 0 mm
06:54 10.9 °C 10.3 °C 1017.2 hPa North 8 km/h 4.7 km/h 96 % 0 mm
06:59 10.9 °C 10.3 °C 1017.2 hPa South 16.7 km/h 10 km/h 96 % 0 mm
07:04 10.9 °C 10.3 °C 1017.5 hPa South 18.5 km/h 9.5 km/h 96 % 0 mm
07:09 10.9 °C 10.3 °C 1017.5 hPa South 9.7 km/h 10 km/h 96 % 0 mm
07:14 10.9 °C 10.3 °C 1017.5 hPa South 11.1 km/h 8.4 km/h 96 % 0 mm
07:19 11.1 °C 10.4 °C 1017.5 hPa South 8 km/h 3.5 km/h 96 % 0 mm
07:24 11.1 °C 10.5 °C 1017.5 hPa South 9.3 km/h 6.6 km/h 96 % 0 mm
07:29 11.2 °C 10.6 °C 1017.5 hPa South 9.7 km/h 6.9 km/h 96 % 0 mm
07:34 11.2 °C 10.6 °C 1017.8 hPa South 11.1 km/h 7.6 km/h 96 % 0 mm
07:39 11.2 °C 10.6 °C 1017.5 hPa South 13 km/h 10.5 km/h 96 % 0 mm
07:44 11.3 °C 10.7 °C 1017.5 hPa South 8 km/h 7.9 km/h 96 % 0 mm
07:49 11.3 °C 10.7 °C 1017.5 hPa South 7.4 km/h 5 km/h 96 % 0 mm
07:54 11.3 °C 10.7 °C 1017.5 hPa North 11.1 km/h 6.3 km/h 96 % 0 mm
07:59 11.3 °C 10.6 °C 1017.5 hPa South 13 km/h 6.1 km/h 95 % 0 mm
08:04 11.4 °C 10.8 °C 1017.5 hPa South 9.7 km/h 5.8 km/h 96 % 0 mm
08:09 11.4 °C 10.8 °C 1017.5 hPa South 11.1 km/h 6.8 km/h 96 % 0 mm
08:14 11.5 °C 10.9 °C 1017.5 hPa South 9.7 km/h 4.2 km/h 96 % 0 mm
08:19 11.5 °C 10.9 °C 1017.8 hPa South 14.8 km/h 8 km/h 96 % 0 mm
08:24 11.6 °C 11 °C 1017.8 hPa South 9.7 km/h 9.7 km/h 96 % 0 mm
08:29 11.7 °C 11.1 °C 1017.8 hPa South 14.5 km/h 3.2 km/h 96 % 0 mm
08:34 11.8 °C 11 °C 1017.8 hPa SSE 13 km/h 9.3 km/h 95 % 0 mm
08:39 11.8 °C 11.2 °C 1017.8 hPa SSE 8 km/h 4.3 km/h 96 % 0 mm
08:42 11.8 °C 11.2 °C 1017.8 hPa North 9.7 km/h 7.4 km/h 96 % 0 mm
08:49 11.9 °C 11.2 °C 1017.8 hPa South 9.7 km/h 10 km/h 95 % 0 mm
08:54 11.9 °C 11.2 °C 1018.2 hPa South 11.1 km/h 9.5 km/h 95 % 0 mm
08:59 12.1 °C 11.3 °C 1018.2 hPa South 14.8 km/h 8 km/h 95 % 0 mm
09:04 12.2 °C 11.4 °C 1018.2 hPa South 13 km/h 7.4 km/h 95 % 0 mm
09:09 12.2 °C 11.3 °C 1018.2 hPa South 9.3 km/h 8.2 km/h 94 % 0 mm
09:14 12.3 °C 11.3 °C 1018.2 hPa South 18.5 km/h 14 km/h 94 % 0 mm
09:19 12.3 °C 11.4 °C 1018.2 hPa South 9.3 km/h 4.7 km/h 94 % 0 mm
09:24 12.4 °C 11.3 °C 1018.2 hPa South 14.5 km/h 11.9 km/h 93 % 0 mm
09:29 12.6 °C 11.6 °C 1018.2 hPa South 14.8 km/h 11.1 km/h 94 % 0 mm
09:34 12.7 °C 11.6 °C 1018.2 hPa South 11.1 km/h 8.7 km/h 93 % 0 mm
09:39 12.8 °C 11.5 °C 1018.5 hPa South 16.7 km/h 10.3 km/h 92 % 0 mm
09:44 12.8 °C 11.6 °C 1018.5 hPa South 13 km/h 7.4 km/h 92 % 0 mm
09:49 13 °C 11.7 °C 1018.2 hPa South 16.7 km/h 9.2 km/h 92 % 0 mm
09:54 13.1 °C 11.7 °C 1018.2 hPa South 11.1 km/h 7.2 km/h 91 % 0 mm
09:59 13.3 °C 11.8 °C 1018.2 hPa South 11.1 km/h 9.3 km/h 91 % 0 mm
10:04 13.3 °C 11.7 °C 1018.2 hPa South 9.3 km/h 8.9 km/h 90 % 0 mm
10:09 13.6 °C 12.2 °C 1018.2 hPa SSE 13 km/h 9.5 km/h 91 % 0 mm
10:14 13.9 °C 12.2 °C 1018.2 hPa SSE 11.1 km/h 9.5 km/h 89 % 0 mm
10:19 14.3 °C 12.4 °C 1018.2 hPa SSE 14.8 km/h 10.8 km/h 88 % 0 mm
10:24 14.7 °C 12.8 °C 1017.8 hPa SSE 16.7 km/h 8.9 km/h 88 % 0 mm
10:29 15.4 °C 13.1 °C 1018.2 hPa SSE 13 km/h 9.2 km/h 86 % 0 mm
10:34 15.8 °C 12.9 °C 1017.8 hPa SE 11.1 km/h 11.6 km/h 83 % 0 mm
10:39 16.2 °C 12.8 °C 1017.8 hPa SE 14.8 km/h 5.1 km/h 80 % 0 mm
10:44 16.1 °C 12.4 °C 1018.2 hPa SSE 13 km/h 5.3 km/h 79 % 0 mm
10:49 16 °C 12.3 °C 1017.8 hPa SSE 13 km/h 8.5 km/h 79 % 0 mm
10:54 16.1 °C 12.4 °C 1017.8 hPa SSE 9.7 km/h 8.5 km/h 79 % 0 mm
10:59 16.4 °C 12.7 °C 1017.8 hPa SSE 13 km/h 8.4 km/h 79 % 0 mm
11:04 17 °C 12.7 °C 1017.8 hPa SSE 13 km/h 6.8 km/h 76 % 0 mm
11:09 17.3 °C 12.6 °C 1017.8 hPa SSE 14.8 km/h 5.6 km/h 74 % 0 mm
11:14 17.3 °C 12.8 °C 1017.8 hPa SSE 11.1 km/h 7.4 km/h 75 % 0 mm
11:19 17.7 °C 13 °C 1017.8 hPa SSE 11.1 km/h 6.4 km/h 74 % 0 mm
11:24 17.8 °C 13.1 °C 1017.8 hPa SSE 11.3 km/h 9 km/h 74 % 0 mm
11:29 17.9 °C 13.1 °C 1017.8 hPa SSE 9.7 km/h 6.4 km/h 73 % 0 mm
11:34 18.2 °C 13.3 °C 1017.8 hPa SSE 11.1 km/h 7.7 km/h 73 % 0 mm
11:39 18.6 °C 13.2 °C 1017.8 hPa SSE 9.3 km/h 3.5 km/h 71 % 0 mm
11:44 18.7 °C 13.1 °C 1017.8 hPa SSE 13 km/h 11.3 km/h 70 % 0 mm
11:49 18.7 °C 12.9 °C 1017.5 hPa SSE 11.1 km/h 5 km/h 69 % 0 mm
11:54 19.2 °C 12.9 °C 1017.5 hPa SSE 9.3 km/h 6.4 km/h 67 % 0 mm
11:59 19.6 °C 13.1 °C 1017.5 hPa SSE 11.1 km/h 2.9 km/h 66 % 0 mm
12:04 19.6 °C 12.8 °C 1017.5 hPa SSE 8 km/h 9.5 km/h 65 % 0 mm
12:07 19.4 °C 12.9 °C 1017.5 hPa SSE 7.4 km/h 3.7 km/h 66 % 0 mm
18:39 22.6 °C 12.8 °C 1015.5 hPa South 7.4 km/h 3.9 km/h 54 % 0 mm
18:44 22.6 °C 12.8 °C 1015.8 hPa South 5.6 km/h 2.3 km/h 54 % 0 mm
18:49 22.8 °C 12.7 °C 1015.8 hPa South 5.6 km/h 4 km/h 53 % 0 mm
18:54 23 °C 12.9 °C 1015.8 hPa South 3.7 km/h 1 km/h 53 % 0 mm
18:59 22.9 °C 12.8 °C 1015.8 hPa South 7.4 km/h 5 km/h 53 % 0 mm
19:04 22.8 °C 12.7 °C 1015.5 hPa South 5.6 km/h 3.9 km/h 53 % 0 mm
19:09 22.5 °C 12.7 °C 1015.5 hPa Calm     54 % 0 mm
19:14 22.3 °C 12.8 °C 1015.8 hPa Calm     55 % 0 mm
19:19 22.1 °C 12.9 °C 1015.8 hPa South 3.7 km/h 0.3 km/h 56 % 0 mm
19:24 21.9 °C 13.3 °C 1015.8 hPa Calm     58 % 0 mm
19:29 21.7 °C 13.1 °C 1015.8 hPa Calm     58 % 0 mm
19:34 21.4 °C 13.1 °C 1015.5 hPa Calm     59 % 0 mm
19:39 21.2 °C 13.1 °C 1015.5 hPa Calm     60 % 0 mm
19:44 20.9 °C 13.1 °C 1015.8 hPa Calm     61 % 0 mm
19:49 20.4 °C 12.9 °C 1015.8 hPa Calm     62 % 0 mm
19:54 20.2 °C 13.2 °C 1015.8 hPa Calm     64 % 0 mm
19:59 20 °C 13 °C 1016.1 hPa Calm     64 % 0 mm
20:04 19.7 °C 13.2 °C 1016.1 hPa South 1.6 km/h 0.8 km/h 66 % 0 mm
20:09 19.4 °C 12.9 °C 1016.1 hPa South 1.9 km/h   66 % 0 mm
20:14 19.3 °C 13 °C 1016.1 hPa Calm     67 % 0 mm
20:19 19.1 °C 12.8 °C 1016.1 hPa Calm     67 % 0 mm
20:24 18.8 °C 12.7 °C 1016.1 hPa South 3.7 km/h 1.4 km/h 68 % 0 mm
20:29 18.5 °C 12.7 °C 1016.5 hPa South 5.6 km/h 3.5 km/h 69 % 0 mm
20:34 18.4 °C 12.6 °C 1016.5 hPa South 5.6 km/h 2.9 km/h 69 % 0 mm
20:39 18.2 °C 12.7 °C 1016.1 hPa South 5.6 km/h 1.1 km/h 70 % 0 mm
20:44 18.1 °C 12.6 °C 1016.1 hPa South 5.6 km/h 2.9 km/h 70 % 0 mm
20:49 17.9 °C 12.6 °C 1016.1 hPa South 5.6 km/h 2.1 km/h 71 % 0 mm
20:54 17.9 °C 12.6 °C 1016.1 hPa South 3.7 km/h 1 km/h 71 % 0 mm
20:59 17.7 °C 12.4 °C 1016.1 hPa South 1.9 km/h   71 % 0 mm
21:04 17.5 °C 12.4 °C 1016.1 hPa Calm     72 % 0 mm
21:09 17.3 °C 12.4 °C 1016.1 hPa South 3.2 km/h 0.8 km/h 73 % 0 mm
21:14 17.2 °C 12.3 °C 1016.1 hPa South 5.6 km/h 4.3 km/h 73 % 0 mm
21:19 17.1 °C 12.4 °C 1016.1 hPa South 3.7 km/h 1.1 km/h 74 % 0 mm
21:24 17.1 °C 12.4 °C 1016.1 hPa South 3.7 km/h 0.2 km/h 74 % 0 mm
21:29 16.9 °C 12.3 °C 1016.1 hPa Calm     74 % 0 mm
21:34 16.8 °C 12.2 °C 1016.1 hPa South 3.7 km/h 2.9 km/h 74 % 0 mm
21:39 16.8 °C 12.3 °C 1016.1 hPa South 7.4 km/h 1.8 km/h 75 % 0 mm
21:44 16.8 °C 12.4 °C 1016.1 hPa South 5.6 km/h 3.5 km/h 75 % 0 mm
21:49 16.8 °C 12.4 °C 1016.1 hPa South 1.9 km/h 0.8 km/h 75 % 0 mm
21:54 16.8 °C 12.4 °C 1016.1 hPa Calm     75 % 0 mm
21:59 16.8 °C 12.3 °C 1016.1 hPa South 5.6 km/h 3.1 km/h 75 % 0 mm
22:04 16.7 °C 12.3 °C 1016.1 hPa South 3.7 km/h 3.1 km/h 75 % 0 mm
22:09 16.6 °C 12.3 °C 1015.8 hPa South 5.6 km/h 3.1 km/h 76 % 0 mm
22:14 16.4 °C 12.2 °C 1015.8 hPa South 5.6 km/h 3.7 km/h 76 % 0 mm
22:19 16.3 °C 12.3 °C 1015.8 hPa South 5.6 km/h 3.7 km/h 77 % 0 mm
22:24 16.2 °C 12.2 °C 1015.8 hPa South 5.6 km/h 3.5 km/h 77 % 0 mm
22:29 16.2 °C 12.4 °C 1015.8 hPa South 3.7 km/h 0.2 km/h 78 % 0 mm
22:34 16.2 °C 12.4 °C 1015.8 hPa South 3.7 km/h 2.1 km/h 78 % 0 mm
22:39 16.2 °C 12.4 °C 1015.8 hPa South 5.6 km/h 4.3 km/h 78 % 0 mm
22:44 16.2 °C 12.6 °C 1015.8 hPa South 5.6 km/h 5.1 km/h 79 % 0 mm
22:49 16.3 °C 12.6 °C 1015.8 hPa South 5.6 km/h 1.1 km/h 79 % 0 mm
22:54 16.3 °C 12.6 °C 1015.8 hPa South 1.6 km/h 0.2 km/h 79 % 0 mm
22:59 16.3 °C 12.6 °C 1015.8 hPa South 5.6 km/h 3.9 km/h 79 % 0 mm
23:04 16.3 °C 12.7 °C 1015.8 hPa South 3.7 km/h 2.4 km/h 79 % 0 mm
23:09 16.3 °C 12.7 °C 1016.1 hPa South 5.6 km/h 4.3 km/h 79 % 0 mm
23:14 16.3 °C 12.7 °C 1016.1 hPa South 5.6 km/h 1.3 km/h 79 % 0 mm
23:19 16.4 °C 12.7 °C 1015.8 hPa South 1.9 km/h 1.4 km/h 79 % 0 mm
23:24 16.3 °C 12.7 °C 1015.8 hPa Calm     79 % 0 mm
23:29 16.3 °C 12.6 °C 1015.8 hPa Calm     79 % 0 mm
23:34 16.3 °C 12.6 °C 1015.8 hPa Calm     79 % 0 mm
23:39 16.2 °C 12.6 °C 1015.8 hPa Calm     79 % 0 mm
23:44 16.2 °C 12.5 °C 1015.8 hPa Calm     79 % 0 mm
23:49 16.1 °C 12.7 °C 1015.8 hPa Calm     80 % 0 mm
23:54 16.1 °C 12.6 °C 1015.8 hPa Calm     80 % 0 mm
23:59 16 °C 12.6 °C 1015.8 hPa Calm     80 % 0 mm
Ararat Weather
Compliments of Weather Underground - 1.75 mb
Click here to send mail.


ABOUT

Live weather data from Ararat, Victoria, Australia, 3377
Data uploaded from Cumulus every 5 minutes to Weather Underground.
This site then downloads the raw data for formatting and display.
Metric and imperial data can be displayed. Graphs and historical data available.
Includes Sun and Moon times and rain image live from BOM.

Check out Ararat Weather on Facebook, Twitter and Google +

Help support ongoing costs by checking out the ads





Follow @AraratWeather